Regional Weather Roundup
Issued by NWS

Home | Current Version | Previous Version | Text Only | Print | Product List | Glossary On
Versions: 1 2 3 4 5 6 7 8 9 10 11 12 13 14 15 16 17 18 19 20 21 22 23 24 25 26 27 28 29 30 31 32 33 34 35 36 37 38 39 40 41 42 43 44 45 46 47 48 49 50
000
ASUS43 KLOT 261208
RWRIL

ILLINOIS REGIONAL WEATHER ROUNDUP
NATIONAL WEATHER SERVICE CHICAGO/ROMEOVILLE IL
700 AM CDT SUN MAR 26 2017

NOTE: "FAIR" INDICATES FEW OR NO CLOUDS BELOW 12,000 FEET WITH NO
SIGNIFICANT WEATHER AND/OR OBSTRUCTIONS TO VISIBILITY.

* THESE STATIONS ARE NOT UNDER NWS QUALITY CONTROL. THEY ALSO MAY NOT
  REPORT WEATHER SUCH AS PRECIPITATION OR FOG.

ILZ001-002-007-009-015-016-024-261300-
NORTHWEST ILLINOIS

CITY           SKY/WX    TMP DP  RH WIND       PRES   REMARKS
MOLINE         FOG       50  48  93 E6        29.80R VSB 1/4
6HR MIN TEMP:  47; 6HR MAX TEMP:  50; 6HR PCP:  0.01;

STERLING*      FOG       50  50 100 E5        29.82S VSB 3/4
SAVANNA*       CLOUDY    46  46  98 NE5       29.83R FOG
$$

ILZ003-004-008-010-011-017-018-261300-
NORTH CENTRAL ILLINOIS

CITY           SKY/WX    TMP DP  RH WIND       PRES   REMARKS
ROCKFORD       FOG       47  45  93 NE8       29.86S VSB 1/2
6HR MIN TEMP:  46; 6HR MAX TEMP:  47;

FREEPORT*      FOG       43  43 100 NE7       29.86R VSB 1/4
ROCHELLE*      FOG       51  51 100 SE7       29.84R VSB 1
DE KALB*       FOG       49  48  99 E9        29.84S VSB 1/4
PERU*          CLOUDY    53  52  94 S8        29.83S
$$

ILZ005-006-012>014-019>023-261300-
NORTHEAST ILLINOIS

CITY           SKY/WX    TMP DP  RH WIND       PRES   REMARKS
CHICAGO-OHARE  CLOUDY    48  46  93 NE6       29.85S FOG
6HR MIN TEMP:  47; 6HR MAX TEMP:  48; 6HR PCP:  0.01;

CHICAGO-MIDWAY LGT RAIN  52  52 100 SE10      29.86S FOG
6HR MIN TEMP:  48; 6HR MAX TEMP:  52; 6HR PCP:  0.05;

AURORA         LGT RAIN  51  50  96 NE6       29.84S VSB 1/2
6HR MIN TEMP:  49; 6HR MAX TEMP:  52; 6HR PCP: TRACE;

LANSING*       HVY RAIN  50  50 100 SE10      29.87S
JOLIET*        CLOUDY    55  55  98 SE8       29.84S FOG
WAUKEGAN       RAIN      42  42 100 E8        29.88S FOG
6HR MIN TEMP:  40; 6HR MAX TEMP:  42; 6HR PCP:  0.17;

DUPAGE AIRPORT FOG       49  49 100 E7        29.84S VSB 1/4
6HR MIN TEMP:  46; 6HR MAX TEMP:  49; 6HR PCP:  0.01;

KANKAKEE*      CLOUDY    55  55  97 SE6       29.86S
WHEELING       LGT RAIN  44  44 100 E3        29.87S FOG
6HR MIN TEMP:  42; 6HR MAX TEMP:  44; 6HR PCP:  0.04;

MORRIS*        CLOUDY    55  54  95 S8        29.83R
ROMEOVILLE*    CLOUDY    54  54 100 SE10      29.84S
$$

LMZ740>746-261300-
SOUTHERN LAKE MICHIGAN

STATION/POSITION SKY/WX   TEMP    WIND        PRES    VSBY  WAVE
                          AIR SEA DIR/SP/G                  HT/PER
                          (F)     (DEG/KT/KT) (MB)    (MI)  (FT/S)
HARRISON CRIB              43     150/ 11/ 12   N/A
BURNHAM HARBOR             42      CALM  /  4   N/A
CALUMET HARBOR             46     100/  8/ 10 1010.9S
BURNS HARBOR               51     130/ 12/ 18 1012.2F
MICHIGAN CITY              49     120/ 12/ 16   N/A
$$

ILZ025>027-034>036-040-047-049-050-058-095>099-261300-
WEST-CENTRAL ILLINOIS

CITY           SKY/WX    TMP DP  RH WIND       PRES   REMARKS
QUINCY         LGT RAIN  49  49 100 SW13      29.82R FOG
GALESBURG*     CLOUDY    52  52  99 S7        29.79S
MACOMB*        CLOUDY    51  51  99 S9        29.83R FOG
JACKSONVILLE*  CLOUDY    50  48  92 S7        29.84R
PITTSFIELD*    CLOUDY    50  49  97 SW9       29.84R
$$

ILZ028>032-037-038-041>044-048-051>054-059>061-261300-
CENTRAL ILLINOIS

CITY           SKY/WX    TMP DP  RH WIND       PRES   REMARKS
PONTIAC        CLOUDY    56  55  98 S7        29.85S
BLOOMINGTON    CLOUDY    53  52  96 S8        29.85R FOG
DECATUR        CLOUDY    54  52  93 SW7       29.86R
PEORIA         CLOUDY    53  51  93 S14       29.82S
6HR MIN TEMP:  53; 6HR MAX TEMP:  59; 6HR PCP: TRACE;

LACON*         CLOUDY    53  52  95 S6        29.82R
LINCOLN*       CLOUDY    54  53  97 CALM      29.84S
SPRINGFIELD    CLOUDY    53  50  89 SW6       29.84S
6HR MIN TEMP:  52; 6HR MAX TEMP:  58;

TAYLORVILLE    CLOUDY    50  48  93 S6        29.85S
$$

ILZ033-039-045-046-055>057-062-063-261300-
EAST-CENTRAL ILLINOIS

CITY           SKY/WX    TMP DP  RH WIND       PRES   REMARKS
CHAMPAIGN      CLOUDY    57  53  86 S10       29.86R
RANTOUL*       CLOUDY    57  56  95 S8        29.86R
MATTOON        CLOUDY    56  54  93 S7        29.86S
PARIS*         CLOUDY    56  56  97 S9        29.89R
$$

ILZ079-100>102-261300-
SOUTHWEST ILLINOIS

CITY           SKY/WX    TMP DP  RH WIND       PRES   REMARKS
ALTON          CLOUDY    52  46  82 SW8       29.87R
CAHOKIA*       CLOUDY    53  46  77 W7        29.87R
SPARTA*        CLOUDY    53  51  93 SW3       29.89R
$$

ILZ064>066-069>071-074>076-080>082-084>086-088>090-092>094-261300-
SOUTH-CENTRAL ILLINOIS

CITY           SKY/WX    TMP DP  RH WIND       PRES   REMARKS
CARBONDALE     MOCLDY    52  52 100 S5        29.90R
6HR MIN TEMP:  52; 6HR MAX TEMP:  56;

CAIRO*         CLOUDY    53  51  91 S3        29.92R
EFFINGHAM*     CLOUDY    56  55  98 SE5       29.89S
MARION         CLOUDY    55  54  94 S6        29.91R
MT. VERNON     CLOUDY    55  54  96 S5        29.89R
CENTRALIA*     CLOUDY    55  55  97 CALM      29.87S
SALEM*         CLOUDY    56  53  89 SW6       29.87R
METROPOLIS*    CLOUDY    56  55  95 S3        29.93R
$$

ILZ067-068-072-073-078-083-087-091-261300-
SOUTHEAST ILLINOIS

CITY           SKY/WX    TMP DP  RH WIND       PRES   REMARKS
LAWRENCEVILLE  CLOUDY    56  56 100 S8        29.91R
FLORA*         CLOUDY    57  55  94 S8        29.89R
FAIRFIELD*     CLOUDY    55  55  98 S5        29.89R
HARRISBURG*    CLOUDY    56  55  95 S7        29.91R
ROBINSON*      LGT RAIN  55  54  97 S9        29.91R
CARMI*         LGT RAIN  55  55  98 S6        29.91R
$$

ABBREVIATIONS USED IN REMARKS
   TC - TEMPERATURE IN CELSIUS
  WCI - WIND CHILL INDEX
   HX - HEAT INDEX
  VSB - VISIBILITY
$$




USA.gov is the U.S. government's official web portal to all federal, state and local government web resources and services.